| time (UTC) | temp F | wind direction | speed knots | gust knots | rain 1hr in | rain 24hr in | rain mn in | humidity % | barometer mb |
| 20260507070333 | 44 | 185 | 0.0 | 4.3 | 0.00 | 0.18 | 0.00 | 94 | 1006.9 |
| 20260507065328 | 44 | 210 | 1.7 | 8.7 | 0.00 | 0.18 | 0.00 | 94 | 1006.9 |
| 20260507064324 | 44 | 195 | 1.7 | 4.3 | 0.00 | 0.18 | 0.00 | 94 | 1006.9 |
| 20260507063323 | 44 | 210 | 0.0 | 4.3 | 0.00 | 0.18 | 0.00 | 94 | 1006.9 |
| 20260507062320 | 44 | 253 | 0.9 | 4.3 | 0.00 | 0.18 | 0.00 | 94 | 1006.9 |
| 20260507061313 | 44 | 176 | 0.0 | 4.3 | 0.00 | 0.18 | 0.00 | 93 | 1006.9 |
| 20260507060308 | 44 | 252 | 3.5 | 7.0 | 0.00 | 0.18 | 0.00 | 93 | 1007.2 |
| 20260507055306 | 44 | 267 | 1.7 | 7.0 | 0.00 | 0.18 | 0.00 | 93 | 1007.2 |
| 20260507054301 | 44 | 292 | 0.0 | 4.3 | 0.00 | 0.18 | 0.00 | 93 | 1007.2 |
| 20260507053259 | 44 | 225 | 1.7 | 4.3 | 0.00 | 0.18 | 0.00 | 93 | 1007.2 |
| 20260507052253 | 44 | 234 | 0.0 | 4.3 | 0.00 | 0.18 | 0.00 | 94 | 1007.6 |
| 20260507051249 | 44 | 218 | 0.0 | 4.3 | 0.00 | 0.18 | 0.00 | 94 | 1007.6 |
| 20260507050747 | 44 | 217 | 0.9 | 4.3 | 0.00 | 0.18 | 0.00 | 94 | 1007.6 |
| 20260507045743 | 43 | 189 | 1.7 | 4.3 | 0.00 | 0.18 | 0.00 | 94 | 1007.9 |
| 20260507044238 | 43 | 179 | 0.9 | 4.3 | 0.00 | 0.18 | 0.00 | 95 | 1008.3 |
| 20260507043236 | 43 | 132 | 0.0 | 7.0 | 0.00 | 0.18 | 0.00 | 95 | 1008.3 |
| 20260507042231 | 43 | 229 | 0.0 | 4.3 | 0.00 | 0.18 | 0.00 | 95 | 1008.3 |
| 20260507041228 | 43 | 149 | 0.9 | 1.7 | 0.00 | 0.18 | 0.00 | 95 | 1008.3 |
| 20260507040227 | 43 | 196 | 0.0 | 4.3 | 0.00 | 0.18 | 0.00 | 95 | 1008.3 |
| 20260507035221 | 43 | 228 | 0.0 | 4.3 | 0.00 | 0.18 | 0.18 | 95 | 1008.3 |
| 20260507034715 | 43 | 215 | 0.9 | 4.3 | 0.00 | 0.18 | 0.18 | 95 | 1008.6 |
| 20260507033713 | 42 | 173 | 0.0 | 4.3 | 0.00 | 0.18 | 0.18 | 95 | 1008.6 |
| 20260507032206 | 42 | 227 | 1.7 | 4.3 | 0.00 | 0.18 | 0.18 | 96 | 1008.6 |
| 20260507031203 | 42 | 198 | 0.0 | 1.7 | 0.00 | 0.18 | 0.18 | 96 | 1008.6 |
| 20260507030158 | 42 | 230 | 0.0 | 1.7 | 0.00 | 0.18 | 0.18 | 96 | 1008.9 |
| 20260507025155 | 42 | 111 | 0.0 | 1.7 | 0.00 | 0.18 | 0.18 | 96 | 1008.6 |
| 20260507024151 | 42 | 169 | 0.0 | 1.7 | 0.00 | 0.18 | 0.18 | 96 | 1008.6 |
| 20260507023649 | 42 | 202 | 0.0 | 1.7 | 0.00 | 0.18 | 0.18 | 96 | 1008.9 |
| 20260507022143 | 42 | 198 | 0.0 | 0.0 | 0.00 | 0.18 | 0.18 | 95 | 1008.9 |
| 20260507021152 | 43 | 262 | 0.0 | 0.0 | 0.00 | 0.18 | 0.18 | 94 | 1008.9 |
| 20260507020148 | 44 | 191 | 0.0 | 0.0 | 0.00 | 0.18 | 0.18 | 93 | 1008.9 |
| 20260507015131 | 44 | 213 | 0.0 | 1.7 | 0.00 | 0.18 | 0.18 | 92 | 1008.9 |
| 20260507014629 | 45 | 183 | 0.9 | 1.7 | 0.00 | 0.18 | 0.18 | 91 | 1008.9 |
| 20260507013124 | 45 | 149 | 0.9 | 4.3 | 0.00 | 0.18 | 0.18 | 91 | 1009.3 |
| 20260507012121 | 45 | 238 | 0.9 | 4.3 | 0.00 | 0.18 | 0.18 | 90 | 1009.3 |
| 20260507011119 | 45 | 194 | 0.9 | 4.3 | 0.00 | 0.18 | 0.18 | 90 | 1009.3 |
| 20260507010113 | 46 | 202 | 1.7 | 7.0 | 0.00 | 0.18 | 0.18 | 90 | 1009.3 |
| 20260507005109 | 46 | 153 | 0.0 | 4.3 | 0.00 | 0.18 | 0.18 | 89 | 1008.9 |
| 20260507004104 | 46 | 196 | 0.9 | 7.0 | 0.00 | 0.18 | 0.18 | 89 | 1008.9 |
| 20260507003102 | 46 | 211 | 0.9 | 7.0 | 0.00 | 0.18 | 0.18 | 89 | 1008.9 |
| 20260507002057 | 46 | 254 | 0.9 | 7.0 | 0.00 | 0.18 | 0.18 | 89 | 1008.6 |
| 20260507001105 | 46 | 223 | 0.0 | 4.3 | 0.00 | 0.18 | 0.18 | 89 | 1008.6 |
| 20260507000601 | 46 | 203 | 0.9 | 4.3 | 0.00 | 0.18 | 0.18 | 89 | 1008.3 |
| 20260506235044 | 47 | 225 | 0.0 | 1.7 | 0.00 | 0.18 | 0.18 | 89 | 1008.3 |
| 20260506234541 | 47 | 154 | 0.9 | 4.3 | 0.00 | 0.18 | 0.18 | 88 | 1008.3 |
| 20260506233039 | 47 | 206 | 0.0 | 4.3 | 0.00 | 0.18 | 0.18 | 87 | 1008.3 |
| 20260506232035 | 47 | 180 | 0.9 | 4.3 | 0.00 | 0.18 | 0.18 | 86 | 1008.3 |
| 20260506231029 | 47 | 211 | 0.9 | 4.3 | 0.00 | 0.18 | 0.18 | 86 | 1008.3 |
| 20260506230031 | 48 | 199 | 0.0 | 4.3 | 0.00 | 0.18 | 0.18 | 86 | 1008.3 |
| 20260506225532 | 48 | 203 | 0.0 | 4.3 | 0.00 | 0.18 | 0.18 | 83 | 1008.3 |
| 20260506225025 | 48 | 222 | 0.0 | 4.3 | 0.00 | 0.18 | 0.18 | 85 | 1008.3 |
| 20260506223024 | 49 | 192 | 2.6 | 4.3 | 0.00 | 0.18 | 0.18 | 83 | 1008.3 |
| 20260506222009 | 49 | 249 | 2.6 | 7.0 | 0.00 | 0.18 | 0.18 | 83 | 1008.6 |
| 20260506221008 | 49 | 150 | 0.9 | 4.3 | 0.00 | 0.18 | 0.18 | 83 | 1008.6 |
| 20260506220000 | 50 | 149 | 1.7 | 4.3 | 0.00 | 0.18 | 0.18 | 83 | 1008.6 |
| 20260506215002 | 50 | 238 | 0.0 | 7.0 | 0.00 | 0.18 | 0.18 | 81 | 1008.3 |
| 20260506214958 | 51 | 181 | 2.6 | 7.0 | 0.00 | 0.18 | 0.18 | 82 | 1008.6 |
| 20260506212953 | 49 | 255 | 1.7 | 7.0 | 0.00 | 0.18 | 0.18 | 82 | 1008.6 |
| 20260506211945 | 48 | 210 | 1.7 | 7.0 | 0.00 | 0.18 | 0.18 | 84 | 1008.3 |
| 20260506210940 | 48 | 307 | 1.7 | 7.0 | 0.00 | 0.18 | 0.18 | 84 | 1008.3 |
| 20260506205935 | 48 | 241 | 0.0 | 4.3 | 0.00 | 0.18 | 0.18 | 85 | 1008.6 |
| 20260506204934 | 47 | 135 | 0.0 | 4.3 | 0.00 | 0.18 | 0.18 | 87 | 1008.6 |
| 20260506203928 | 47 | 237 | 0.0 | 4.3 | 0.00 | 0.18 | 0.18 | 87 | 1008.3 |
| 20260506203425 | 47 | 206 | 2.6 | 4.3 | 0.00 | 0.18 | 0.18 | 87 | 1008.6 |
| 20260506201921 | 47 | 253 | 1.7 | 7.0 | 0.00 | 0.18 | 0.18 | 86 | 1008.6 |
| 20260506200917 | 47 | 232 | 0.0 | 4.3 | 0.00 | 0.18 | 0.18 | 87 | 1008.9 |
| 20260506195912 | 47 | 215 | 0.0 | 7.0 | 0.00 | 0.18 | 0.18 | 87 | 1008.6 |
| 20260506194908 | 47 | 193 | 1.7 | 4.3 | 0.00 | 0.18 | 0.18 | 87 | 1008.9 |
| 20260506193917 | 47 | 160 | 0.9 | 4.3 | 0.00 | 0.18 | 0.18 | 87 | 1008.9 |
| 20260506192913 | 47 | 226 | 1.7 | 7.0 | 0.00 | 0.18 | 0.18 | 87 | 1008.9 |
| 20260506192357 | 47 | 225 | 0.9 | 4.3 | 0.00 | 0.18 | 0.18 | 88 | 1008.9 |
| 20260506190852 | 46 | 178 | 0.0 | 4.3 | 0.00 | 0.18 | 0.18 | 89 | 1008.9 |
| 20260506185847 | 46 | 295 | 0.9 | 4.3 | 0.00 | 0.18 | 0.18 | 89 | 1009.3 |
| 20260506185345 | 46 | 210 | 0.9 | 4.3 | 0.00 | 0.18 | 0.18 | 89 | 1008.9 |
| 20260506184341 | 46 | 194 | 0.9 | 4.3 | 0.00 | 0.18 | 0.18 | 89 | 1008.9 |
| 20260506182837 | 46 | 210 | 0.9 | 4.3 | 0.00 | 0.18 | 0.18 | 89 | 1009.3 |
| 20260506181831 | 47 | 175 | 0.9 | 4.3 | 0.00 | 0.18 | 0.18 | 88 | 1009.3 |
| 20260506180828 | 47 | 231 | 0.9 | 4.3 | 0.00 | 0.18 | 0.18 | 88 | 1008.9 |
| 20260506180325 | 47 | 165 | 2.6 | 7.0 | 0.00 | 0.18 | 0.18 | 88 | 1008.9 |
| 20260506174822 | 47 | 232 | 1.7 | 4.3 | 0.00 | 0.18 | 0.18 | 88 | 1008.9 |
| 20260506173814 | 46 | 246 | 1.7 | 4.3 | 0.00 | 0.18 | 0.18 | 90 | 1009.3 |
| 20260506172811 | 46 | 174 | 1.7 | 4.3 | 0.00 | 0.18 | 0.18 | 94 | 1009.3 |
| 20260506171807 | 45 | 235 | 0.9 | 8.7 | 0.00 | 0.18 | 0.18 | 96 | 1009.6 |
| 20260506170803 | 44 | 263 | 3.5 | 4.3 | 0.00 | 0.18 | 0.18 | 96 | 1009.6 |
| 20260506165800 | 44 | 154 | 1.7 | 4.3 | 0.00 | 0.18 | 0.18 | 96 | 1009.9 |
| 20260506164757 | 44 | 230 | 1.7 | 4.3 | 0.01 | 0.18 | 0.18 | 96 | 1009.9 |
| 20260506163751 | 44 | 250 | 0.9 | 4.3 | 0.01 | 0.18 | 0.18 | 96 | 1009.9 |
| 20260506162747 | 44 | 171 | 1.7 | 4.3 | 0.02 | 0.18 | 0.18 | 97 | 1009.9 |
| 20260506161745 | 44 | 208 | 0.0 | 4.3 | 0.02 | 0.18 | 0.18 | 98 | 1009.9 |
| 20260506161240 | 43 | 186 | 0.0 | 4.3 | 0.02 | 0.18 | 0.18 | 98 | 1010.3 |
| 20260506155735 | 43 | 226 | 1.7 | 4.3 | 0.02 | 0.18 | 0.18 | 99 | 1010.3 |
| 20260506154731 | 42 | 228 | 0.9 | 4.3 | 0.02 | 0.17 | 0.17 | 99 | 1010.6 |
| 20260506153727 | 42 | 240 | 0.0 | 7.0 | 0.02 | 0.17 | 0.17 | 99 | 1010.6 |
| 20260506152725 | 42 | 235 | 2.6 | 7.0 | 0.02 | 0.15 | 0.15 | 99 | 1010.6 |
| 20260506151720 | 42 | 224 | 1.7 | 8.7 | 0.02 | 0.15 | 0.15 | 99 | 1010.6 |
| 20260506150719 | 42 | 198 | 5.2 | 7.0 | 0.02 | 0.15 | 0.15 | 99 | 1010.6 |
| 20260506145710 | 42 | 211 | 1.7 | 7.0 | 0.04 | 0.15 | 0.15 | 99 | 1010.6 |
| 20260506144710 | 42 | 234 | 4.3 | 8.7 | 0.04 | 0.14 | 0.14 | 99 | 1010.6 |
| 20260506143701 | 42 | 222 | 0.0 | 7.0 | 0.05 | 0.14 | 0.14 | 99 | 1010.3 |
| 20260506142658 | 42 | 186 | 2.6 | 7.0 | 0.05 | 0.13 | 0.13 | 99 | 1009.9 |
| 20260506141654 | 42 | 207 | 1.7 | 7.0 | 0.06 | 0.13 | 0.13 | 99 | 1009.9 |
| 20260506140650 | 42 | 187 | 1.7 | 8.7 | 0.07 | 0.12 | 0.13 | 99 | 1010.3 |
| 20260506135645 | 42 | 239 | 0.9 | 7.0 | 0.07 | 0.12 | 0.12 | 99 | 1010.3 |
| 20260506134643 | 42 | 229 | 0.9 | 4.3 | 0.07 | 0.11 | 0.11 | 99 | 1010.3 |
| 20260506133639 | 42 | 195 | 0.0 | 7.0 | 0.06 | 0.09 | 0.09 | 98 | 1010.6 |
| 20260506132636 | 42 | 210 | 0.9 | 7.0 | 0.05 | 0.08 | 0.08 | 98 | 1010.3 |
| 20260506131631 | 43 | 214 | 0.0 | 4.3 | 0.04 | 0.07 | 0.07 | 98 | 1009.9 |
| 20260506130627 | 43 | 223 | 4.3 | 7.0 | 0.01 | 0.05 | 0.05 | 97 | 1010.3 |
| 20260506125621 | 43 | 211 | 4.3 | 7.0 | 0.01 | 0.05 | 0.05 | 96 | 1009.9 |
| 20260506124622 | 43 | 276 | 4.3 | 8.7 | 0.00 | 0.04 | 0.04 | 96 | 1010.3 |
| 20260506123615 | 43 | 174 | 3.5 | 7.0 | 0.00 | 0.04 | 0.04 | 97 | 1009.9 |
| 20260506122612 | 43 | 199 | 1.7 | 7.0 | 0.00 | 0.04 | 0.04 | 97 | 1009.9 |
| 20260506121611 | 43 | 216 | 1.7 | 7.0 | 0.02 | 0.04 | 0.04 | 96 | 1009.9 |
| 20260506121607 | 43 | 228 | 0.9 | 4.3 | 0.01 | 0.04 | 0.04 | 96 | 1009.9 |
| 20260506120100 | 42 | 223 | 3.5 | 7.0 | 0.02 | 0.04 | 0.04 | 96 | 1009.9 |
| 20260506114556 | 43 | 140 | 0.9 | 7.0 | 0.02 | 0.04 | 0.04 | 97 | 1009.9 |
| 20260506113604 | 43 | 211 | 3.5 | 7.0 | 0.02 | 0.04 | 0.04 | 97 | 1009.9 |
| 20260506112548 | 43 | 212 | 3.5 | 8.7 | 0.02 | 0.04 | 0.04 | 96 | 1010.3 |
| 20260506112045 | 44 | 225 | 2.6 | 7.0 | 0.02 | 0.02 | 0.02 | 95 | 1009.9 |
| 20260506110540 | 44 | 208 | 1.7 | 7.0 | 0.01 | 0.01 | 0.01 | 93 | 1009.9 |
| 20260506105534 | 44 | 215 | 1.7 | 7.0 | 0.01 | 0.01 | 0.01 | 93 | 1009.6 |
| 20260506104535 | 45 | 203 | 2.6 | 7.0 | 0.01 | 0.01 | 0.01 | 93 | 1009.9 |
| 20260506103528 | 45 | 204 | 1.7 | 7.0 | 0.01 | 0.01 | 0.01 | 91 | 1009.6 |
| 20260506102525 | 45 | 189 | 2.6 | 7.0 | 0.01 | 0.01 | 0.01 | 90 | 1009.6 |
| 20260506101525 | 46 | 214 | 2.6 | 7.0 | 0.00 | 0.00 | 0.00 | 90 | 1009.6 |
| 20260506100519 | 46 | 224 | 3.5 | 11.3 | 0.00 | 0.00 | 0.00 | 85 | 1009.6 |
| 20260506095511 | 46 | 180 | 1.7 | 7.0 | 0.00 | 0.00 | 0.00 | 89 | 1009.6 |
| 20260506094508 | 46 | 200 | 3.5 | 8.7 | 0.00 | 0.00 | 0.00 | 92 | 1009.3 |
| 20260506093507 | 47 | 48 | 0.0 | 1.7 | 0.00 | 0.00 | 0.00 | 93 | 1009.3 |
| 20260506093503 | 47 | 244 | 5.2 | 8.7 | 0.00 | 0.00 | 0.00 | 92 | 1009.6 |
| 20260506091458 | 47 | 223 | 1.7 | 7.0 | 0.00 | 0.00 | 0.00 | 92 | 1009.3 |
| 20260506090453 | 47 | 273 | 1.7 | 7.0 | 0.00 | 0.00 | 0.00 | 91 | 1009.3 |
| 20260506085449 | 47 | 225 | 0.0 | 4.3 | 0.00 | 0.00 | 0.00 | 91 | 1008.9 |
| 20260506084445 | 47 | 181 | 0.9 | 4.3 | 0.00 | 0.00 | 0.00 | 90 | 1008.9 |
| 20260506083440 | 47 | 200 | 0.0 | 8.7 | 0.00 | 0.00 | 0.00 | 90 | 1008.9 |
| 20260506082439 | 48 | 234 | 0.0 | 4.3 | 0.00 | 0.00 | 0.00 | 90 | 1009.6 |
| 20260506081432 | 48 | 227 | 0.0 | 7.0 | 0.00 | 0.00 | 0.00 | 90 | 1009.6 |
| 20260506080431 | 48 | 180 | 0.0 | 4.3 | 0.00 | 0.00 | 0.00 | 91 | 1009.3 |
| 20260506073419 | 48 | 215 | 6.1 | 8.7 | 0.00 | 0.00 | 0.00 | 91 | 1009.3 |
| 20260506072413 | 48 | 125 | 2.6 | 7.0 | 0.00 | 0.00 | 0.00 | 91 | 1008.9 |
| 20260506071409 | 49 | 231 | 0.0 | 7.0 | 0.00 | 0.00 | 0.00 | 91 | 1008.9 |